Location: Kalberh�ni
(46.4610°N, 7.2453°E)
Time: 22:17:43
(UTC+00:00)

USA 229 - Pass Details

Date: 26 October 2021
Orbit: 946 x 1266 km, 63.4° (Epoch: 25 November)

Event Time Altitude Azimuth Distance (km) Brightness Sun altitude
Rises 17:45:13 0° 212° (SSW) 3,627 7.0 -14.3°
Reaches altitude 10° 17:47:42 10° 211° (SSW) 2,705 6.3 -14.8°
Maximum altitude 17:54:01 79° 126° (SE) 1,034 3.5 -15.9°
Enters shadow 18:00:49 10° 41° (NE) 2,901 5.6 -17.0°
